Flag for Germany Weather past 2 weeks in Kerpen, North Rhine-Westphalia, Germany

Now
39 °F

Partly cloudy.


Feels Like: 34 °F
Forecast: 38 / 46 °F
Wind: 8 mph from Southwest

Location: Noervenich

Current Time: Jan 27, 2015 at 6:51:13 PM

Latest Report: Jan 27, 2015 at 6:20 PM


Visibility: N/A

Pressure: 30.21 "Hg

Humidity: 93%

Dew point: 37 °F

Location of KerpenLocation

Historic Weather in Kerpen — Graph

°F

Kerpen temperature yesterday

Maximum temperature yesterday: 43 °F (at 2:20 PM)
Minimum temperature yesterday: 36 °F (at 12:20 AM)
Average temperature yesterday: 39 °F

Past Weeks' High & Low Weather Summary

 TemperatureHumidityPressure
High55 °F (Jan 13, 1:20 PM)100% (Jan 17, 6:20 AM)30.42 "Hg (Jan 17, 6:20 AM)
Low25 °F (Jan 24, 3:20 AM)55% (Jan 13, 1:20 PM)29.47 "Hg (Jan 15, 3:20 PM)
Average37 °F83%29.96 "Hg
* Reported Jan 12 5:20 PM — Jan 27 5:20 PM, Kerpen, Weather by CustomWeather, © 2014

Note: Actual official high and low records may vary slightly from our data, if they occured in-between our weather recording intervals... More about our weather records

Advertising

Kerpen weather history for previous 24 hours

 ConditionsComfort  
Time TempWeatherWind HumidityBarometerVisibility
5:20 PM
Jan 27
41 °FPartly cloudy.9 mph87%30.18 "HgN/A
4:20 PM41 °FBroken clouds.9 mph87%30.18 "HgN/A
3:20 PM41 °FBroken clouds.9 mph87%30.18 "HgN/A
2:20 PM41 °FBroken clouds.9 mph87%30.18 "HgN/A
1:20 PM41 °FBroken clouds.7 mph87%30.21 "HgN/A
12:20 PM39 °FScattered showers. Broken clouds.9 mph93%30.21 "HgN/A
11:20 AM39 °FBroken clouds.9 mph93%30.21 "HgN/A
10:20 AM39 °FBroken clouds.9 mph87%30.21 "HgN/A
10:00 AM39 °FSprinkles. Partly sunny.8 mph87%30.21 "HgN/A
9:20 AM37 °FBroken clouds.9 mph93%30.21 "HgN/A
8:20 AM37 °FBroken clouds.8 mph87%30.18 "HgN/A
7:20 AM37 °FPartly cloudy.7 mph87%30.18 "HgN/A
6:20 AM37 °FPassing clouds.9 mph87%30.18 "HgN/A
5:20 AM37 °FPassing clouds.8 mph87%30.18 "HgN/A
4:20 AM37 °FPassing clouds.8 mph87%30.18 "HgN/A
3:20 AM37 °FPassing clouds.7 mph87%30.15 "HgN/A
2:20 AM37 °FPassing clouds.8 mph87%30.15 "HgN/A
1:20 AM37 °FPassing clouds.8 mph93%30.15 "HgN/A
12:20 AM39 °FPartly cloudy.10 mph87%30.15 "HgN/A
11:20 PM
Jan 26
39 °FPartly cloudy.9 mph93%30.12 "HgN/A
10:20 PM41 °FPassing clouds.7 mph87%30.12 "HgN/A
9:20 PM41 °FPartly cloudy.7 mph81%30.09 "HgN/A
8:20 PM43 °FPartly cloudy.8 mph81%30.09 "HgN/A
7:20 PM43 °FPassing clouds.8 mph81%30.09 "HgN/A
6:20 PM43 °FPartly cloudy.10 mph87%30.07 "HgN/A
Weather by CustomWeather, © 2014

See weather overviewHow to use our weather pages